Home > Weather > Damascus > Past weeks

Flag for Syria Past Weather in Damascus, Syria — Yesterday and Last 2 Weeks

Now
86 °F

Sunny.


Feels Like: 83 °F
Forecast: 49 / 94 °F
Wind: 16 mph from Southwest

Location: Damascus Int. Airport

Current Time: Jun 1, 2016 at 10:29:39 AM

Latest Report: Jun 1, 2016 at 10:00 AM


Visibility: 10 mi

Pressure: 29.98 "Hg (27.74 "Hg at 689m altitude)

Humidity: 19%

Dew Point: 39 °F

Location of DamascusLocation

Past Weather in Damascus — Graph

°F

Damascus Temperature Yesterday

Maximum temperature yesterday: 93 °F (at 4:00 PM)
Minimum temperature yesterday: 55 °F (at 6:00 AM)
Average temperature yesterday: 76 °F

High & Low Weather Summary for the Past Weeks

 TemperatureHumidityPressure
High97 °F (May 17, 1:00 PM)100% (May 25, 7:00 AM)30.07 "Hg (May 25, 7:00 AM)
Low41 °F (May 25, 7:00 AM)9% (May 21, 3:00 PM)29.77 "Hg (May 26, 2:00 PM)
Average71 °F41%29.92 "Hg
* Reported May 17 9:00 AM — Jun 1 9:00 AM, Damascus, Weather by CustomWeather, © 2016

Note: Actual official high and low records may vary slightly from our data, if they occured in-between our weather recording intervals... More about our weather records

Advertising

Damascus Weather History for the Previous 24 Hours

Scroll right to see more
 ConditionsComfort  
Time TempWeatherWind HumidityBarometerVisibility
9:00 AM
Wed, Jun 1
79 °FSunny.16 mph26%30.01 "Hg10 mi
8:00 AM73 °FSunny.15 mph33%30.01 "Hg10 mi
7:00 AM68 °FMild.13 mph43%29.98 "HgN/A
6:00 AM66 °FMild.12 mph43%29.98 "Hg4 mi
5:00 AM64 °FClear.15 mph43%29.98 "Hg10 mi
4:00 AM63 °FClear.14 mph68%29.98 "Hg10 mi
3:00 AM66 °FClear.14 mph40%30.01 "Hg10 mi
2:00 AM68 °FClear.14 mph38%30.01 "Hg10 mi
1:00 AM70 °FClear.12 mph33%30.01 "Hg10 mi
12:00 AM70 °FClear.14 mph33%30.01 "Hg10 mi
11:00 PM
Tue, May 31
73 °FClear.14 mph29%30.04 "Hg10 mi
10:00 PM77 °FClear.5 mph26%30.01 "Hg10 mi
9:00 PM84 °FClear.14 mph20%30.01 "Hg10 mi
8:00 PM82 °FSunny.16 mph23%29.98 "Hg10 mi
7:00 PM86 °FPassing clouds.18 mph20%29.95 "HgN/A
6:00 PM91 °FPassing clouds.18 mph14%29.92 "HgN/A
5:00 PM93 °FPassing clouds.20 mph13%29.95 "HgN/A
4:00 PM93 °FPassing clouds.16 mph13%29.95 "HgN/A
3:00 PM91 °FPassing clouds.12 mph14%29.98 "HgN/A
2:00 PM91 °FPassing clouds.12 mph14%30.01 "HgN/A
1:00 PM88 °FPassing clouds.12 mph15%30.01 "HgN/A
12:00 PM86 °FPassing clouds.9 mph15%30.04 "HgN/A
11:00 AM82 °FSunny.No wind20%30.07 "Hg10 mi
10:00 AM79 °FSunny.3 mph28%30.07 "Hg10 mi
Weather by CustomWeather, © 2016

See weather overviewHow to use our weather pages